FW7499 Weather Reports


time (UTC)temp
C
wind
direction
speed
KPH
gust
KPH
rain 1hr
cm
rain 24hr
cm
rain mn
cm
humidity
%
barometer
mb
20260831164007 29 352 1.6 6.4 0.00 0.00 0.00 69 1013.7
20260831163508 28 344 3.2 6.4 0.00 0.00 0.00 68 1013.7
20260831163033 28 350 1.6 4.8 0.00 0.00 0.00 68 1013.7
20260831162502 27 331 1.6 4.8 0.00 0.00 0.00 69 1013.7
20260831162007 27 322 1.6 3.2 0.00 0.00 0.00 70 1013.7
20260831161514 27 360 3.2 4.8 0.00 0.00 0.00 69 1013.6
20260831161003 27 333 1.6 4.8 0.00 0.00 0.00 69 1013.5
20260831160507 27 316 1.6 6.4 0.00 0.00 0.00 70 1013.4
20260831160013 27 313 1.6 6.4 0.00 0.00 0.00 69 1013.4
20260831155515 27 328 1.6 6.4 0.00 0.00 0.00 71 1013.2
20260831155003 27 308 1.6 4.8 0.00 0.00 0.00 71 1013.0
20260831154521 27 321 0.0 6.4 0.00 0.00 0.00 72 1013.0
20260831154007 27 324 3.2 6.4 0.00 0.00 0.00 70 1013.0
20260831153505 27 360 1.6 6.4 0.00 0.00 0.00 71 1012.8
20260831153004 27 336 0.0 6.4 0.00 0.00 0.00 70 1013.0
20260831152512 27 325 1.6 6.4 0.00 0.00 0.00 73 1013.1
20260831152008 26 321 1.6 4.8 0.00 0.00 0.00 75 1013.1
20260831151521 26 360 1.6 3.2 0.00 0.00 0.00 78 1012.9
20260831151005 25 360 1.6 3.2 0.00 0.00 0.00 78 1013.0
20260831150508 25 360 0.0 3.2 0.00 0.00 0.00 79 1013.0
20260831150027 25 360 0.0 4.8 0.00 0.00 0.00 79 1013.0
20260831145505 25 360 1.6 4.8 0.00 0.00 0.00 80 1013.1
20260831145003 25 342 1.6 3.2 0.00 0.00 0.00 80 1013.2
20260831144524 25 88 0.0 3.2 0.00 0.00 0.00 81 1012.8
20260831144008 25 88 0.0 3.2 0.00 0.00 0.00 81 1012.6
20260831143506 25 342 1.6 3.2 0.00 0.00 0.00 80 1012.6
20260831143007 25 327 0.0 3.2 0.00 0.00 0.00 83 1012.7
20260831142506 25 327 0.0 3.2 0.00 0.00 0.00 81 1012.7
20260831142006 25 327 0.0 3.2 0.00 0.00 0.00 82 1012.6
20260831141514 25 327 0.0 3.2 0.00 0.00 0.00 81 1013.0
20260831141004 24 327 1.6 3.2 0.00 0.00 0.00 81 1012.8
20260831140511 24 300 0.0 3.2 0.00 0.00 0.00 80 1012.7
20260831140022 24 9 0.0 4.8 0.00 0.00 0.00 81 1012.4
20260831135505 24 313 0.0 4.8 0.00 0.00 0.00 82 1012.6
20260831135003 24 360 1.6 4.8 0.00 0.00 0.00 81 1012.1
20260831134506 24 274 0.0 4.8 0.00 0.00 0.00 81 1012.0
20260831134003 24 329 1.6 8.0 0.00 0.00 0.00 81 1012.6
20260831133503 24 327 3.2 8.0 0.00 0.00 0.00 81 1012.8
20260831133004 24 343 1.6 4.8 0.00 0.00 0.00 81 1013.0
20260831132507 24 344 1.6 6.4 0.00 0.00 0.00 82 1012.8
20260831132008 24 246 3.2 6.4 0.00 0.00 0.00 81 1012.8
20260831131506 24 34 3.2 6.4 0.00 0.00 0.00 83 1012.9
20260831131008 24 338 0.0 4.8 0.00 0.00 0.00 84 1012.7
20260831130507 24 338 0.0 4.8 0.00 0.00 0.00 83 1012.8
20260831130004 24 360 1.6 4.8 0.00 0.00 0.00 83 1012.7
20260831125504 24 185 1.6 4.8 0.00 0.00 0.00 82 1012.8
20260831125004 24 240 1.6 6.4 0.00 0.00 0.00 83 1012.7
20260831124518 24 259 1.6 6.4 0.00 0.00 0.00 84 1012.8
20260831124003 24 296 0.0 3.2 0.00 0.00 0.00 85 1012.7
20260831123503 23 295 0.0 3.2 0.00 0.00 0.00 86 1012.6
20260831123005 23 286 0.0 3.2 0.00 0.00 0.00 87 1012.2
20260831122505 23 286 0.0 3.2 0.00 0.00 0.00 87 1012.3
20260831122003 23 286 0.0 3.2 0.00 0.00 0.00 88 1012.3
20260831121509 23 286 0.0 1.6 0.00 0.00 0.00 90 1012.1
20260831121008 22 286 0.0 3.2 0.00 0.00 0.00 90 1011.9
20260831120505 23 286 0.0 3.2 0.00 0.00 0.00 90 1011.7
20260831120009 22 286 1.6 3.2 0.00 0.00 0.00 90 1011.7
20260831115506 22 257 0.0 3.2 0.00 0.00 0.00 91 1011.8
20260831115011 22 257 0.0 3.2 0.00 0.00 0.00 91 1011.5
20260831114508 22 257 0.0 1.6 0.00 0.00 0.00 91 1011.2
20260831114006 22 257 0.0 1.6 0.00 0.00 0.00 91 1011.4
20260831113514 22 258 0.0 3.2 0.00 0.00 0.00 90 1011.2
20260831113012 22 257 0.0 3.2 0.00 0.00 0.00 90 1011.2
20260831112506 23 258 0.0 3.2 0.00 0.00 0.00 90 1011.0
20260831112003 23 257 0.0 3.2 0.00 0.00 0.00 90 1011.0
20260831111513 23 257 0.0 3.2 0.00 0.00 0.00 90 1010.9
20260831111003 23 258 0.0 0.0 0.00 0.00 0.00 90 1010.8
20260831110506 23 257 0.0 0.0 0.00 0.00 0.00 90 1010.8
20260831110006 23 257 0.0 0.0 0.00 0.00 0.00 90 1010.8
20260831105510 23 258 0.0 0.0 0.00 0.00 0.00 89 1010.8
20260831105006 23 257 0.0 3.2 0.00 0.00 0.00 89 1010.9
20260831104522 23 257 0.0 3.2 0.00 0.00 0.00 89 1010.8
20260831104010 23 257 0.0 3.2 0.00 0.00 0.00 90 1010.8
20260831103505 23 258 0.0 3.2 0.00 0.00 0.00 89 1010.8
20260831103017 23 257 0.0 3.2 0.00 0.00 0.00 89 1010.8
20260831102511 23 257 0.0 0.0 0.00 0.00 0.00 90 1010.7
20260831102005 23 257 0.0 1.6 0.00 0.00 0.00 90 1010.7
20260831101507 23 258 0.0 3.2 0.00 0.00 0.00 90 1010.7
20260831101006 23 258 0.0 3.2 0.00 0.00 0.00 90 1010.5
20260831100504 23 258 0.0 0.0 0.00 0.00 0.00 90 1010.6
20260831100006 23 257 0.0 0.0 0.00 0.00 0.00 90 1010.6
20260831095503 23 257 0.0 0.0 0.00 0.00 0.00 90 1010.4
20260831095011 23 258 0.0 0.0 0.00 0.00 0.00 90 1010.4
20260831094516 22 257 0.0 0.0 0.00 0.00 0.00 91 1010.5
20260831094004 23 257 0.0 3.2 0.00 0.00 0.00 90 1010.3
20260831093511 23 258 0.0 3.2 0.00 0.00 0.00 90 1010.2
20260831093013 23 257 0.0 3.2 0.00 0.00 0.00 90 1010.1
20260831092513 23 258 0.0 3.2 0.00 0.00 0.00 90 1010.1
20260831092007 23 258 0.0 3.2 0.00 0.00 0.00 90 1010.1
20260831091507 23 258 0.0 0.0 0.00 0.00 0.00 90 1010.1
20260831091016 23 258 0.0 0.0 0.00 0.00 0.00 89 1010.1
20260831090508 23 257 0.0 0.0 0.00 0.00 0.00 89 1010.1
20260831090009 23 258 0.0 0.0 0.00 0.00 0.00 89 1010.1
20260831085509 23 257 0.0 0.0 0.00 0.00 0.00 89 1010.0
20260831085010 23 257 0.0 0.0 0.00 0.00 0.00 89 1010.0
20260831084518 23 257 0.0 3.2 0.00 0.00 0.00 88 1009.9
20260831084011 23 257 0.0 3.2 0.00 0.00 0.00 87 1009.9
20260831083507 23 257 0.0 3.2 0.00 0.00 0.00 88 1009.8
20260831083008 23 257 0.0 3.2 0.00 0.00 0.00 88 1009.7
20260831082513 23 257 0.0 1.6 0.00 0.00 0.00 88 1009.7
20260831082013 23 257 0.0 0.0 0.00 0.00 0.00 88 1009.7
20260831081524 23 258 0.0 3.2 0.00 0.00 0.00 88 1009.6
20260831081013 23 257 0.0 3.2 0.00 0.00 0.00 88 1009.6
20260831080512 23 257 0.0 0.0 0.00 0.00 0.00 88 1009.8
20260831080033 23 258 0.0 0.0 0.00 0.00 0.00 87 1009.7
20260831075507 24 257 0.0 0.0 0.00 0.00 0.00 86 1009.7
20260831075012 24 257 0.0 3.2 0.00 0.00 0.00 86 1009.7
20260831074510 24 258 0.0 3.2 0.00 0.00 0.00 86 1009.5
20260831074007 24 257 0.0 3.2 0.00 0.00 0.00 87 1009.6
20260831073508 24 352 0.0 1.6 0.00 0.00 0.00 87 1009.7
20260831073015 24 352 0.0 1.6 0.00 0.00 0.00 87 1009.8
20260831072516 24 352 0.0 1.6 0.00 0.00 0.00 87 1009.9
20260831072006 24 352 0.0 3.2 0.00 0.00 0.00 87 1009.9
20260831071544 24 352 0.0 3.2 0.00 0.00 0.00 87 1009.9
20260831071014 24 352 0.0 0.0 0.00 0.00 0.00 87 1009.8
20260831070512 24 352 0.0 0.0 0.00 0.00 0.00 87 1009.9
20260831070015 24 352 0.0 0.0 0.00 0.00 0.00 86 1009.9
20260831065514 24 352 0.0 0.0 0.00 0.00 0.00 86 1010.0
20260831065010 24 352 0.0 0.0 0.00 0.00 0.00 87 1010.0
20260831064532 24 352 0.0 0.0 0.00 0.00 0.00 87 1010.0
20260831064010 24 352 0.0 0.0 0.00 0.00 0.00 87 1010.0
20260831063510 24 352 0.0 0.0 0.00 0.00 0.00 86 1010.0
20260831063006 24 352 0.0 0.0 0.00 0.00 0.00 86 1010.0
20260831062508 25 352 0.0 0.0 0.00 0.00 0.00 86 1010.0
20260831062008 25 352 0.0 0.0 0.00 0.00 0.00 85 1010.0
20260831061504 25 352 0.0 3.2 0.00 0.00 0.00 85 1010.0
20260831061010 25 352 0.0 3.2 0.00 0.00 0.00 84 1009.8
20260831060505 25 352 0.0 3.2 0.00 0.00 0.00 84 1009.8
20260831060026 25 352 0.0 3.2 0.00 0.00 0.00 84 1009.8
20260831055507 25 352 0.0 1.6 0.00 0.00 0.00 84 1009.7
20260831055003 25 352 0.0 3.2 0.00 0.00 0.00 84 1009.8
20260831054507 25 352 0.0 3.2 0.00 0.00 0.00 84 1009.7
20260831054011 25 352 0.0 3.2 0.00 0.00 0.00 84 1009.6
20260831053506 25 352 1.6 3.2 0.00 0.00 0.00 85 1009.6
20260831053024 25 352 0.0 3.2 0.00 0.00 0.00 84 1009.6
20260831052507 25 352 0.0 3.2 0.00 0.00 0.00 84 1009.6
20260831052008 25 352 0.0 3.2 0.00 0.00 0.00 85 1009.4
20260831051515 25 352 0.0 4.8 0.00 0.00 0.00 85 1009.4
20260831051013 25 352 3.2 4.8 0.00 0.00 0.00 84 1009.4
20260831050512 25 286 0.0 3.2 0.00 0.00 0.00 83 1009.3
20260831050023 25 286 0.0 1.6 0.00 0.00 0.00 83 1009.3
20260831045514 25 286 0.0 0.0 0.00 0.00 0.00 83 1009.3
20260831045012 25 286 0.0 0.0 0.00 0.00 0.00 83 1009.3
20260831044509 25 286 0.0 0.0 0.00 0.00 0.00 82 1009.3
20260831044008 25 286 0.0 0.0 0.00 0.00 0.00 83 1009.3
20260831043504 25 286 0.0 0.0 0.00 0.00 0.00 83 1009.3
20260831043010 25 286 0.0 0.0 0.00 0.00 0.00 83 1009.3
20260831042509 25 286 0.0 0.0 0.00 0.00 0.00 83 1009.4
20260831042008 25 286 0.0 0.0 0.00 0.00 0.00 83 1009.3
20260831041513 25 286 0.0 0.0 0.00 0.00 0.00 83 1009.4
20260831041007 25 286 0.0 0.0 0.00 0.00 0.00 83 1009.4
20260831040509 25 286 0.0 0.0 0.00 0.00 0.00 82 1009.4
20260831040026 25 286 0.0 0.0 0.00 0.00 0.00 82 1009.5
20260831035515 25 286 0.0 0.0 0.00 0.00 0.00 82 1009.5
20260831035009 25 286 0.0 3.2 0.00 0.00 0.00 82 1009.6
20260831034523 25 286 0.0 3.2 0.00 0.00 0.00 81 1009.6
20260831034009 26 286 0.0 3.2 0.00 0.00 0.00 81 1009.7
20260831033517 26 286 0.0 3.2 0.00 0.00 0.00 80 1009.7
20260831033017 26 286 0.0 0.0 0.00 0.00 0.00 79 1009.7
20260831032510 26 286 0.0 0.0 0.00 0.00 0.00 79 1009.6
20260831032008 26 286 0.0 0.0 0.00 0.00 0.00 79 1009.6
20260831031513 26 286 0.0 0.0 0.00 0.00 0.00 78 1009.7
20260831031011 26 286 0.0 0.0 0.00 0.00 0.00 79 1009.8
20260831030513 26 286 0.0 0.0 0.00 0.00 0.00 79 1009.8
20260831030016 26 286 0.0 0.0 0.00 0.00 0.00 79 1009.9
20260831025510 26 286 0.0 0.0 0.00 0.00 0.00 79 1009.9
20260831025012 26 286 0.0 0.0 0.00 0.00 0.00 78 1009.9
20260831024515 26 286 0.0 0.0 0.00 0.00 0.00 77 1009.8
20260831024011 27 286 0.0 0.0 0.00 0.00 0.00 76 1009.8
20260831023513 27 286 0.0 0.0 0.00 0.00 0.00 77 1009.7
20260831023027 27 286 0.0 0.0 0.00 0.00 0.00 77 1009.7
20260831022515 27 286 0.0 0.0 0.00 0.00 0.00 76 1009.6
20260831022011 27 286 0.0 0.0 0.00 0.00 0.00 77 1009.6
20260831021529 27 286 0.0 0.0 0.00 0.00 0.00 76 1009.6
20260831021012 27 286 0.0 0.0 0.00 0.00 0.00 77 1009.5
20260831020510 27 286 0.0 0.0 0.00 0.00 0.00 77 1009.5
20260831020022 27 286 0.0 0.0 0.00 0.00 0.00 76 1009.5
20260831015512 27 286 0.0 0.0 0.00 0.00 0.00 76 1009.4
20260831015013 27 286 0.0 0.0 0.00 0.00 0.00 75 1009.3
20260831014525 27 286 0.0 0.0 0.00 0.00 0.00 73 1009.3
20260831014011 27 286 0.0 0.0 0.00 0.00 0.00 73 1009.1
20260831013514 28 286 0.0 0.0 0.00 0.00 0.00 72 1009.1
20260831013023 28 286 0.0 0.0 0.00 0.00 0.00 72 1009.2
20260831012509 28 286 0.0 0.0 0.00 0.00 0.00 72 1009.1
20260831012017 28 286 0.0 0.0 0.00 0.00 0.00 71 1009.1
20260831011526 28 286 0.0 0.0 0.00 0.00 0.00 71 1009.1
20260831011018 28 286 0.0 0.0 0.00 0.00 0.00 71 1009.1
20260831010517 28 286 0.0 0.0 0.00 0.00 0.00 71 1009.1
20260831010018 28 286 0.0 0.0 0.00 0.00 0.00 71 1009.0
20260831005513 28 286 0.0 0.0 0.00 0.00 0.00 70 1009.0
20260831005015 28 286 0.0 0.0 0.00 0.00 0.00 70 1008.9
20260831004518 28 286 0.0 0.0 0.00 0.00 0.00 69 1009.0
20260831004018 28 286 0.0 0.0 0.00 0.00 0.00 69 1009.0
20260831003509 29 286 0.0 0.0 0.00 0.00 0.00 69 1009.0
20260831003034 29 286 0.0 0.0 0.00 0.00 0.00 68 1009.0
20260831002514 30 286 0.0 0.0 0.00 0.00 0.00 67 1009.0
20260831002011 30 286 0.0 0.0 0.00 0.00 0.00 66 1009.0
20260831001521 30 286 0.0 3.2 0.00 0.00 0.00 65 1009.0
20260831001015 30 286 0.0 3.2 0.00 0.00 0.00 65 1009.0
20260831000518 30 298 0.0 3.2 0.00 0.00 0.00 64 1009.0
20260831000034 30 298 0.0 3.2 0.00 0.00 0.00 63 1009.0
20260830235513 31 306 1.6 3.2 0.00 0.00 0.00 64 1009.0
20260830235014 31 277 0.0 3.2 0.00 0.00 0.00 61 1009.0
20260830234527 31 277 0.0 6.4 0.00 0.00 0.00 62 1009.0
20260830234011 31 242 1.6 6.4 0.00 0.00 0.00 60 1009.0
20260830233514 31 165 0.0 3.2 0.00 0.00 0.00 62 1009.0
20260830233024 31 156 0.0 3.2 0.00 0.00 0.00 61 1008.9
20260830232511 32 157 0.0 3.2 0.00 0.00 0.00 60 1008.9
20260830232014 32 156 0.0 3.2 0.00 0.00 0.00 59 1008.9
20260830231524 32 323 1.6 3.2 0.00 0.00 0.00 56 1008.9
20260830231009 32 185 0.0 4.8 0.00 0.00 0.00 57 1008.8
20260830230512 32 241 1.6 4.8 0.00 0.00 0.00 58 1008.8
20260830230008 32 182 1.6 6.4 0.00 0.00 0.00 58 1008.7
20260830225506 32 291 0.0 6.4 0.00 0.00 0.00 58 1008.8
20260830225010 32 263 1.6 9.7 0.00 0.00 0.00 58 1008.7
20260830224514 32 306 0.0 9.7 0.00 0.00 0.00 57 1008.7
20260830224012 32 78 1.6 8.0 0.00 0.00 0.00 59 1008.7
20260830223512 32 292 1.6 8.0 0.00 0.00 0.00 55 1008.8
20260830223012 32 34 3.2 4.8 0.00 0.00 0.00 57 1008.7
20260830222513 32 236 1.6 4.8 0.00 0.00 0.00 56 1008.8
20260830222005 32 197 0.0 6.4 0.00 0.00 0.00 57 1008.8
20260830221508 32 202 1.6 8.0 0.00 0.00 0.00 55 1008.8
20260830221016 32 348 3.2 8.0 0.00 0.00 0.00 56 1008.7
20260830220515 32 40 0.0 8.0 0.00 0.00 0.00 56 1008.8
20260830220011 32 176 3.2 8.0 0.00 0.00 0.00 55 1008.7
20260830215513 32 124 1.6 8.0 0.00 0.00 0.00 58 1008.7
20260830215016 31 173 1.6 9.7 0.00 0.00 0.00 61 1008.7
20260830214514 32 304 1.6 9.7 0.00 0.00 0.00 56 1008.7
20260830214013 32 147 3.2 8.0 0.00 0.00 0.00 56 1008.6
20260830213508 32 218 1.6 6.4 0.00 0.00 0.00 56 1008.6
20260830213019 32 158 1.6 6.4 0.00 0.00 0.00 54 1008.6
20260830212508 32 317 1.6 6.4 0.00 0.00 0.00 52 1008.6
20260830212012 32 213 3.2 6.4 0.00 0.00 0.00 54 1008.6
20260830211526 32 334 1.6 6.4 0.00 0.00 0.00 52 1008.7
20260830211011 32 305 1.6 8.0 0.00 0.00 0.00 54 1008.8
20260830210510 32 160 3.2 8.0 0.00 0.00 0.00 56 1008.9
20260830210023 31 293 1.6 12.9 0.00 0.00 0.00 56 1009.0
20260830205509 31 215 0.0 12.9 0.00 0.00 0.00 54 1009.0
20260830205010 31 299 0.0 12.9 0.00 0.00 0.00 56 1009.1
20260830204519 31 298 4.8 12.9 0.00 0.00 0.00 53 1009.2
20260830204015 31 350 4.8 12.9 0.00 0.00 0.00 57 1009.3
20260830203514 31 282 3.2 8.0 0.00 0.00 0.00 57 1009.3
20260830203014 31 240 1.6 8.0 0.00 0.00 0.00 62 1009.3
20260830202506 30 308 1.6 6.4 0.00 0.00 0.00 59 1009.5
20260830202003 30 291 1.6 6.4 0.00 0.00 0.00 58 1009.3
20260830201504 30 260 3.2 8.0 0.00 0.00 0.00 58 1009.2
20260830201002 30 134 1.6 6.4 0.00 0.00 0.00 59 1009.0
20260830200504 31 207 1.6 4.8 0.00 0.00 0.00 56 1009.1
20260830200010 31 342 1.6 6.4 0.00 0.00 0.00 57 1009.1
20260830195502 31 352 1.6 4.8 0.00 0.00 0.00 58 1009.3
20260830195003 31 264 0.0 3.2 0.00 0.00 0.00 63 1009.5
20260830194507 30 180 1.6 3.2 0.00 0.00 0.00 62 1009.5
20260830194004 29 185 1.6 3.2 0.00 0.00 0.00 63 1009.7
20260830193503 29 332 0.0 6.4 0.00 0.00 0.00 65 1009.8
20260830193006 29 61 1.6 6.4 0.00 0.00 0.00 63 1009.8
20260830192505 29 236 1.6 3.2 0.00 0.00 0.00 63 1009.8
20260830192007 29 90 1.6 11.3 0.00 0.00 0.00 61 1009.8
20260830191503 29 188 4.8 11.3 0.00 0.00 0.00 61 1009.7
20260830191004 29 182 0.0 11.3 0.00 0.00 0.00 63 1009.7
20260830190503 29 267 3.2 8.0 0.00 0.00 0.00 62 1009.7
20260830190041 29 207 1.6 6.4 0.00 0.00 0.00 61 1009.3
20260830185503 30 260 1.6 6.4 0.00 0.00 0.00 57 1009.4
20260830185002 30 163 3.2 11.3 0.00 0.00 0.00 59 1009.4
20260830184508 30 313 3.2 11.3 0.00 0.00 0.00 58 1009.5
20260830184005 30 234 3.2 6.4 0.00 0.00 0.00 59 1009.5
20260830183503 29 332 3.2 8.0 0.00 0.00 0.00 58 1009.4
20260830183012 29 148 3.2 9.7 0.00 0.00 0.00 59 1009.4
20260830182508 30 267 1.6 9.7 0.00 0.00 0.00 58 1009.5
20260830182004 29 135 3.2 8.0 0.00 0.00 0.00 60 1009.6
20260830181518 29 48 3.2 6.4 0.00 0.00 0.00 58 1009.8
20260830181005 29 159 3.2 6.4 0.00 0.00 0.00 58 1010.0
20260830180504 29 98 3.2 12.9 0.00 0.00 0.00 57 1010.2
20260830180010 29 14 1.6 12.9 0.00 0.00 0.00 56 1010.0
20260830175502 30 188 4.8 12.9 0.00 0.00 0.00 57 1010.0
20260830175002 30 269 3.2 14.5 0.00 0.00 0.00 58 1010.1
20260830174503 30 199 4.8 14.5 0.00 0.00 0.00 57 1010.1
20260830174002 30 312 3.2 14.5 0.00 0.00 0.00 56 1010.1
20260830173505 30 296 3.2 14.5 0.00 0.00 0.00 56 1010.1
20260830173004 30 207 3.2 14.5 0.00 0.00 0.00 53 1010.1
20260830172507 30 172 3.2 16.1 0.00 0.00 0.00 55 1010.1
20260830172010 31 170 4.8 16.1 0.00 0.00 0.00 53 1010.1
20260830171505 30 175 3.2 12.9 0.00 0.00 0.00 56 1010.0
20260830171006 30 94 4.8 12.9 0.00 0.00 0.00 57 1010.0
20260830170509 30 205 1.6 11.3 0.00 0.00 0.00 56 1010.0
20260830170004 29 313 1.6 12.9 0.00 0.00 0.00 60 1010.0
20260830165512 29 136 1.6 12.9 0.00 0.00 0.00 57 1010.0
20260830165004 29 233 3.2 12.9 0.00 0.00 0.00 56 1010.0
20260830164515 30 333 6.4 12.9 0.00 0.00 0.00 54 1010.0